Hourly Data Report for October 23, 2014

All times are specified in Local Standard Time (LST). Add 1 hour to adjust for Daylight Saving Time where and when it is observed.

PANGNIRTUNG
NUNAVUT

66°08'36.300" N
65°42'40.500" W
22.60 m
2403049
71826
WXP

Download Data

Hourly Data (October 2014)
Hourly Data Report for October 23, 2014
Temp Definition
°C
Dew Point Temp Definition
°C
Rel Hum Definition
%
Wind Dir Definition
10's deg

Wind Spd Definition
km/h
Visibility Definition
km
Stn Press Definition
kPa
Hmdx Definition


Wind Chill Definition


Weather Definition


TIME
00:00 -3.9 -7.3 77 22 3   99.81   -5 LegendNANA
01:00 -3.5 -6.2 81 22 7   99.81   -6 LegendNANA
02:00 -2.7 -6.1 77 23 23   99.84   -9 LegendNANA
03:00 -3.1 -5.7 82 27 18   99.89   -9 LegendNANA
04:00 -3.3 -5.3 86 26 21   99.94   -10 LegendNANA
05:00
06:00
07:00 -7.8 -13.3 64 25 25   100.16   -16 LegendNANA
08:00 -9.5 -13.6 72 25 39   100.17   -20 LegendNANA
09:00 -10.4 -16.2 62 24 33   100.26   -20 LegendNANA
10:00 -10.9 -18.7 53 24 30   100.35   -21 LegendNANA
11:00 -10.8 -20.9 43 24 21   100.41   -19 LegendNANA
12:00 -11.0 -20.5 45 34 15   100.50   -18 LegendNANA
13:00 -12.8 -20.3 53 25 26   100.66   -23 LegendNANA
14:00 -13.7 -18.8 65 27 27   100.82   -24 LegendNANA
15:00 -15.0 -20.0 65 26 33   100.85   -27 LegendNANA
16:00 -15.4 -20.7 64 25 27   100.87   -26 LegendNANA
17:00 -15.2 -20.2 65 25 31   100.92   -26 LegendNANA
18:00 -15.4 -20.9 62 25 22   100.91   -25 LegendNANA
19:00 -15.3 -22.0 57 24 32   100.98   -27 LegendNANA
20:00 -14.7 -21.6 56 12 10   101.03   -21 LegendNANA
21:00 -14.1 -20.1 61 30 12   100.98   -21 LegendNANA
22:00 -13.4 -18.6 65 26 16   100.94   -21 LegendNANA
23:00 -13.6 -18.2 68 32 17   100.85   -22 LegendNANA

Notes on Data Quality.

Legend

  • E = Estimated
  • M = Missing
  • NA = Not Available
  • ‡ = Partner data that is not subject to review by the National Climate Archives
Date modified: